Other Public Products
Issued by NWS Grand Forks, ND

Home | Current Version | Previous Version | Graphics & Text | Print | Product List | Glossary On
Versions: 1 2 3 4 5 6 7 8 9 10 11 12 13 14 15 16 17 18 19 20 21 22 23 24 25 26 27 28 29 30 31 32 33 34 35 36 37 38 39 40 41 42 43 44 45 46 47 48 49 50
473
FPUS83 KFGF 072010
OPUFGF
PRAIRIE TO PINES WEATHER ROUNDUP
NATIONAL WEATHER SERVICE EASTERN NORTH DAKOTA/GRAND FORKS ND
200 PM CST SUN FEB 07 2016

 **SATELLITE DATA USED TO AUGMENT SKY COVER AT AUTOMATED STATIONS**
 *****  WEATHER ACROSS EASTERN NORTH DAKOTA  *****

CITY           SKY/WX    TMP DP  RH WIND       PRES   REMARKS
GRAND FORKS    CLOUDY    22  13  68 N30G44    29.78R WCI   4
GRAND FORKS AF CLOUDY    21  10  63 N26G37    29.79R WCI   4
GRAND CITY NWS   N/A     19 N/A N/A N21         N/A  WCI   3
BUXTON           N/A     23  19  86 NW26G38     N/A  WCI   6
DEVILS LAKE    FLURRIES  20  14  77 NW37      29.82R WCI   0
FARGO          CLOUDY    27  18  69 NW38G44   29.76R WCI   9
WAHPETON ARPT  CLOUDY    30  25  80 N29G39    29.74R WCI  15
$$

 *****  WEATHER ACROSS CENTRAL AND WESTERN NORTH DAKOTA  *****

CITY           SKY/WX    TMP DP  RH WIND       PRES   REMARKS
JAMESTOWN      LGT SNOW  24  17  74 NW38G47   29.83R WCI   5
BISMARCK       CLOUDY    34  19  54 NW39G54   29.97R WCI  19
MINOT          FLURRIES  29  15  56 NW32G53   29.99R WCI  13
MINOT AFB      CLOUDY    27  17  65 NW30G44   29.98R WCI  11
GARRISON         N/A     29  18  63 NW41G51   29.98R WCI  11
WILLISTON      SUNNY     37  17  44 NW33G43   30.16R
DICKINSON      PTSUNNY   31  12  45 NW38G49   30.08R WCI  15
HETTINGER      PTSUNNY   35  11  36 NW39G56   30.09R WCI  20
$$

 *****  OTHER OBSERVATIONS NORTHEAST NORTH DAKOTA  *****

CITY           SKY/WX    TMP DP  RH WIND       PRES   REMARKS
WALHALLA       FAIR      16  10  79 N29G44    29.84R WCI  -4
LANGDON        FLURRIES  18  12  79 NW26G36   29.79R WCI  -1
CAVALIER       HVY SNOW  16   9  73 N33G44    29.82R VSB 1/4 WCI  -5
GRAFTON        FLURRIES  18  12  79 N29G40    29.81R WCI  -2
CANDO          NOT AVBL
FORT TOTTEN      N/A     21  12  69 NW15      29.95S WCI   8
ROLLA          SNOW      16  12  86 NW38G52   29.86R VSB 1/2 WCI  -6
RUGBY          NOT AVBL
 ***** THE ABOVE OBSERVATIONS ARE NON NWS ARE NOT QUALITY
        CONTROLLED AND MAY MIS-REPORT RAIN FOR SNOW...
$$

 *****  OTHER OBSERVATIONS SOUTHEAST NORTH DAKOTA *****

CITY           SKY/WX    TMP DP  RH WIND       PRES   REMARKS
COOPERSTOWN    NOT AVBL
VALLEY CITY    FLURRIES  27  16  63 NW39G51   29.81R WCI   8
OAKES          FLURRIES  28  25  86 NW39G46   29.80R WCI  11
GWINNER        CLOUDY    30  25  80 NW33G43   29.79R WCI  14
SHEYENNE NWR     N/A     29  21  73 N21       29.95S WCI  16
BUFFALO          N/A     26  18  74 NW28G43     N/A  WCI   9
WYNDMERE       NOT AVBL
 ***** THE ABOVE OBSERVATIONS ARE NON NWS ARE NOT QUALITY
       CONTROLLED AND MAY MIS-REPORT RAIN FOR SNOW...
$$

  *****  WEATHER ACROSS NORTHERN MINNESOTA  *****

CITY           SKY/WX    TMP DP  RH WIND       PRES   REMARKS
FLAG ISLAND    LGT SNOW  21  18  86 NW28      29.57R WCI   3
WARROAD        LGT SNOW  19  16  86 NW23G32   29.62R VSB 1   WCI   2
ROSEAU         LGT SNOW  19  14  79 NW20G29   29.64R VSB 3/4 WCI   4
HALLOCK        SNOW      14  10  85 NW32G40   29.77R VSB 1/4 WCI  -7
THF RVR FALLS  NOT AVBL
HALSTAD        NOT AVBL
FOSSTON        NOT AVBL
BAUDETTE       MIX PCPN  23  17  78 NW24G32   29.54R WCI   7
WASKISH        LGT SNOW  25  21  86 NW20G25   29.55R WCI  11
CROOKSTON      HVY SNOW  18  16  93 N32G41    29.76R VSB<1/4 WCI  -3
$$
  *****  WEATHER ACROSS CENTRAL AND WEST MINNESOTA  *****

CITY           SKY/WX    TMP DP  RH WIND       PRES   REMARKS
BEMIDJI        LGT SNOW  22  19  88 W28G35    29.58R VSB 3/4 WCI   4
PARK RAPIDS    LGT SNOW  25  21  85 NW28G40   29.59R VSB 3/4 WCI   9
WADENA         LGT SNOW  27  21  80 NW25G37   29.61R WCI  11
DETROIT LAKES  SNOW      25  23  93 NW25G37   29.69R VSB 1/4 WCI   9
MOORHEAD       CLOUDY    27  19  74 NW33G44   29.75R WCI   9
FERGUS FALLS   FLURRIES  30  27  86 N26G40    29.72R WCI  16
ELBOW LAKE     LGT SNOW  31  28  90 NW25G32   29.67R WCI  17
MORRIS MN      FLURRIES  34  30  86 NW33G45   29.66R WCI  19
STAPLES        CLOUDY    28  23  80 NW25G40   29.59R WCI  14
WHEATON        LGT SNOW  34  30  86 NW31G37   29.74R WCI  20
$$
  *****  WEATHER ELSEWHERE ACROSS MINNESOTA  *****

CITY           SKY/WX    TMP DP  RH WIND       PRES   REMARKS
DULUTH         LGT SNOW  34  31  88 W13       29.43S FOG     WCI  25
INTRNTL FALLS  LGT SNOW  29  25  85 W14       29.47R FOG     WCI  18
ELY            LGT SNOW  32  32 100 W6        29.40S VSB 3/4
CLOQUET        LGT SNOW  34  32  93 SW8       29.45F
BRAINERD       CLOUDY    33  26  75 NW20G36   29.54R WCI  21
HIBBING        MIX PCPN  30  26  85 NW21      29.44R WCI  17
ALEXANDRIA     FLURRIES  34  30  85 NW24G38   29.61S WCI  21
SAINT CLOUD    CLOUDY    36  29  75 W21G26    29.58F
MINNEAPOLIS    CLOUDY    39  27  62 W16G23    29.61F
$$

  *****  WEATHER ACROSS SOUTH DAKOTA  *****

CITY           SKY/WX    TMP DP  RH WIND       PRES   REMARKS
SIOUX FALLS    FLURRIES  35  29  78 NW21G35   29.81S WCI  24
BROOKINGS      FLURRIES  32  27  81 NW25G38   29.75R WCI  19
WATERTOWN      CLOUDY    32  24  72 NW32G43   29.75R WCI  17
HURON          CLOUDY    33  25  72 NW35G47   29.86R WCI  18
SISSETON         N/A     32  27  81 N32G43    29.73R WCI  17
ABERDEEN       CLOUDY    32  20  61 NW37G47   29.86R WCI  16
MITCHELL       LGT SNOW  33  29  85 NW29G44   29.90R FOG     WCI  19
PIERRE         CLOUDY    38  21  50 NW35G49   29.97R
MOBRIDGE       CLOUDY    35  22  58 NW39G54   29.92S WCI  20
RAPID CITY     SUNNY     39   7  26 NW52G64   30.15S
$$

  *****  SOME WEATHER IN NEARBY STATES *****

CITY           SKY/WX    TMP DP  RH WIND       PRES   REMARKS
GLASGOW MT     SUNNY     35  21  56 NW31G40   30.31R WCI  22
GREAT FALLS MT SUNNY     42   8  24 W9        30.45F
CHEYENNE WY    SUNNY     30  16  56 NW30G44   30.25F WCI  15
SCOTTSBLUFF NE CLOUDY    34  14  43 NW31G41   30.29F WCI  20
OMAHA NE       MOSUNNY   44  24  45 NW22G39   29.94F
DES MOINES IA  PTSUNNY   42  26  53 W22G33    29.86F
DAVENPORT IA   SUNNY     44  30  57 W22       29.78F
CHICAGO IL     CLOUDY    42  31  64 W16G28    29.72S
EAU CLAIRE WI  CLOUDY    39  25  57 W15G22    29.57F
LA CROSSE WI   MOSUNNY   41  25  53 W20G25    29.65S
$$

  *****  SOME NATIONAL WEATHER *****

CITY           SKY/WX    TMP DP  RH WIND       PRES   REMARKS
LA GUARDIA NY  PTSUNNY   45  24  43 NE8       30.06F
RALEIGH NC     CLOUDY    43  22  43 N7        29.94F
ATLANTA GA     PTSUNNY   55  22  27 NW12      30.02F
NEW ORLEANS LA MOSUNNY   60  20  21 VRB5      30.19F
OKLAHOMA CITY  MOSUNNY   57  27  31 N20       30.14F
ALBUQUERQUE NM MOSUNNY   53  17  24 NW20G28   30.33F
SALT LAKE CITY MOSUNNY   38  24  57 W3        30.60F HAZE
LOS ANGELES CA SUNNY     79  22  12 S3        30.11F
BOISE ID       SUNNY     43  33  68 CALM      30.61F
SEATTLE WA     PTSUNNY   50  37  61 N5        30.56S
$$

*** WEATHER ACROSS MANITOBA...SASKATCHEWAN AND ONTARIO ***
                ***ONTARIO***

CITY           SKY/WX    TMP DP  RH WIND       PRES   REMARKS
GERALDTON      LGT SNOW   5   0  78 NE13G20   29.68S DRFTSNOWWCI -12
THUNDER BAY    FRZ DRZL  23  21  93 E17G23    29.53S VSB 1   WCI   9
SIOUX LOOKOUT  LGT SNOW  14   9  79 E7        29.55R WCI   4
TORONTO        CLOUDY    41  28  60 SE12      29.91F
BIG TROUT LK   SUNNY      0 -11  60 E8        29.95S WCI -15
PICKLE LAKE    LGT SNOW   5  -2  72 E13G24    29.70R DRFTSNOWWCI -12
DRYDEN         LGT SNOW  16  14  93 NE12G21   29.50R WCI   3
KENORA         NOT AVBL
$$
                *** MANITOBA***

CITY           SKY/WX    TMP DP  RH WIND       PRES   REMARKS
BRANDON        PTSUNNY   18  10  73 NW28G38   29.93R WCI  -1
DAUPHIN        CLOUDY    14   5  67 N17G23    29.98R WCI  -3
ISLAND LAKE    NOT AVBL
PILOT MOUND    NOT AVBL
THE PAS        CLOUDY    10   3  72 NW17G30   30.05R BLWGSNOWWCI  -7
THOMPSON       LGT SNOW  -4 -11  71 N7        29.98R WCI -18
WINNIPEG       SNOW      10   7  85 NW32G38   29.81R VSB 1/2 WCI -12
LYNN LAKE      CLOUDY     1  -4  78 N8        30.00R WCI -12
GILLAM         CLOUDY    -6 -17  59 E7        30.02R WCI -20
$$
                ***SASKATCHEWAN***

CITY           SKY/WX    TMP DP  RH WIND       PRES   REMARKS
ESTEVAN        PTSUNNY   30  23  74 NW29G45   30.09R WCI  15
KINDERSLEY     MOSUNNY   32  19  59 NW17G23   30.31S WCI  21
LLOYDMINSTER   PTSUNNY   28  19  69 W18       30.26S WCI  16
PRINCE ALBERT  PTSUNNY   27  18  69 NW20G33   30.16R WCI  13
REGINA         MOSUNNY   30  21  69 NW35G43   30.15R WCI  14
YORKTON        FLURRIES  18  14  86 NW25G39   30.04R WCI  -1
N. BATTLEFORD  SUNNY     30  18  59 NW17G25   30.27S WCC1F1C2F2C3F3C4F4C5F5C6F6C7F7C8F8C9F9CaFaCbFbCcFcCdFdCe!



USA.gov is the U.S. government's official web portal to all federal, state and local government web resources and services.